Location: Ostrava
(49.8330°N, 18.2830°E)
Time: 05:02:13
(UTC+01:00)

Lacrosse 5 - Visible Passes

Search period start: 31 October 2014 00:00
Search period end: 10 November 2014 00:00
Orbit: 706 x 722 km, 57.0° (Epoch: 19 October)

Date Brightness Start Highest point End Pass type
(mag) Time Alt. Az. Time Alt. Az. Time Alt. Az.
31 Oct 4.9 05:29:52 10° SSE 05:32:29 14° ESE 05:35:05 10° E visible
02 Nov 4.4 05:21:25 10° S 05:25:20 23° SE 05:29:15 10° ENE visible
03 Nov 4.8 04:28:45 10° SE 04:30:57 13° ESE 04:33:10 10° E visible
04 Nov 3.4 05:13:42 10° SSW 05:18:17 36° SE 05:22:52 10° ENE visible
05 Nov 4.2 04:20:02 10° S 04:23:47 21° SE 04:27:32 10° ENE visible
05 Nov 2.0 06:00:59 10° SW 06:06:04 85° SE 06:11:09 10° ENE visible
06 Nov 4.6 03:27:45 10° SE 03:29:26 12° ESE 03:31:07 10° E visible
06 Nov 2.6 05:06:24 10° SW 05:11:19 54° SE 05:16:15 10° ENE visible
07 Nov 3.4 04:13:33 17° S 04:16:43 33° SE 04:21:13 10° ENE visible
07 Nov 1.9 05:54:15 10° WSW 05:59:19 71° NNW 06:04:22 10° NE visible
08 Nov 4.0 03:21:36 19° SE 03:22:15 19° SE 03:25:48 10° E visible
08 Nov 1.9 05:00:44 19° SW 05:04:28 80° SE 05:09:32 10° ENE visible
09 Nov 2.5 04:08:36 42° S 04:09:44 50° SE 04:14:38 10° ENE visible
09 Nov 2.1 05:47:44 10° W 05:52:38 54° NNW 05:57:36 10° NE visible
